Showing default

FLOCK 4BE 22, 60494

Orbit data source: Space-Track

FLOCK 4BE 22, 60494 is a payload satellite owned by Planet (US) in SSO that was launched on Fri, 16 Aug 2024 UTC via an FALCON 9 launch vehicle from the Air Force Western Test Range (AFWTR). Payloads include a variety of satellites, spacecraft, and rockets equipped with specific instruments for various scientific and technological missions. These include communications satellites like Starlink; space stations such as the ISS; scientific satellites like the Hubble; Earth observation satellites from companies like Planet Labs, Umbra, and HawkEye 360; GPS; miniature CubeSats for education and research; and military/defense satellites.

Loading next visibility...
FLOCK 4BE 22 details
Identifier
60494, 2024-149AC
Orbit
SSO
Last TLE update10 hours ago
Origin
Flag of USPlanet (US)
ManufacturerPlanet
MissionOperational spacecraft
Bus & MotorCUBESAT 3U, Unknown motor
Mass5.7 kg wet, 5.7 kg dry
Launch date (UTC)
2024-08-16 (4 months ago)
Launch vehicle
FALCON 9
Launch site
Air Force Western Test Range (AFWTR)
Object type
Payload
Rocket body
Debris
Shape & HBRUnknown
Radar Cross SectionSmall (<0.1 m²)

Expand to show TLE details & history

TLE from 10 hours ago
0 FLOCK 4BE 22
1 60494U 24149AC  24356.16386950  .00015083  00000-0  65323-3 0  9990
2 60494  97.4264  69.8818 0006285  51.1727 309.0070 15.22482181 19194
Epoch: 2024-12-21T03:55Z
Definitive object data (Epoch: 2024-12-21T03:55:58.324Z)
Latitude-0.00001°
Longitude-79.33018°
Altitude498.73 km
Speed7.617 km/s
True Right ascension04h 39m 31s
True Declination0° 00' 00"
Sunlit
Object was in full shadow at TLE epoch
Visualization TLE readout
Latitude69.13155°
Longitude-98.8062°
Altitude506.246 km
Speed7.62 km/s
Apparent Right ascension01h 35m 54s
Apparent Declination18° 32' 12"
Sunlit
Object is in full shadow
Visualization observer readout
Local Sidereal Time12:44:16
Azimuth345.796° N
Elevation-30.32°
Doppler factor1
Orbital elements
Apogee altitude499.64 km
Perigee altitude491 km
Semi-major axis6,873.457 km
Eccentricity0.0006285
Inclination97.4264°
RAAN69.8818°
Arg. of periapsis51.1727°
True anomaly308.95101°
Mean anomaly309.007°
Eccentric anomaly308.97901°
Mean motion3.80873 °/min
BSTAR0.00065323
Orbital period94.52 mins
Loading maneuver chart data...
Loading historical data...
Loading historical data...
Loading historical data...
Loading historical data...
Loading historical data...
Loading historical data...
Loading historical data...

FLOCK 4BE 22 Visibility forecast

Observer location: undefined°, undefined

Span
Click to sort rows by Start time (UTC) header in descending order
Start Az.
Max El. time (UTC)
Max El. Az.
Max El.
End time (UTC)
End Az.
4 mins2024-12-21 17:08:16.166Z58.461° ENE2024-12-21 17:10:16.166Z96.381° ESE16.746°2024-12-21 17:12:16.166Z132.676° SE
4 mins2024-12-21 18:42:16.166Z328.525° NNW2024-12-21 18:44:16.166Z277.115° WNW23.503°2024-12-21 18:46:16.166Z237.686° WSW
6 mins2024-12-22 05:18:16.166Z175.602° S2024-12-22 05:20:16.166Z203.595° SW41.465°2024-12-22 05:24:16.166Z344.005° N
|